| time (UTC) | temp C | wind direction | speed KPH | gust KPH | rain 1hr cm | rain 24hr cm | rain mn cm | humidity % | barometer mb |
| 20260504204554 | 28 | 94 | 19.3 | 20.9 | 0.00 | 0.00 | 0.00 | 73 | 1009.0 |
| 20260504203055 | 28 | 94 | 19.3 | 20.9 | 0.00 | 0.00 | 0.00 | 72 | 1008.0 |
| 20260504201555 | 28 | 95 | 19.3 | 19.3 | 0.00 | 0.00 | 0.00 | 74 | 1009.0 |
| 20260504200057 | 28 | 95 | 19.3 | 19.3 | 0.00 | 0.00 | 0.00 | 72 | 1008.0 |
| 20260504194555 | 28 | 95 | 19.3 | 19.3 | 0.00 | 0.00 | 0.00 | 74 | 1009.0 |
| 20260504193055 | 28 | 95 | 19.3 | 19.3 | 0.03 | 0.00 | 0.00 | 73 | 1009.0 |
| 20260504191554 | 28 | 105 | 16.1 | 19.3 | 0.00 | 0.00 | 0.00 | 75 | 1009.0 |
| 20260504190057 | 28 | 105 | 16.1 | 19.3 | 0.00 | 0.00 | 0.00 | 74 | 1009.0 |
| 20260504184555 | 28 | 105 | 16.1 | 19.3 | 0.00 | 0.00 | 0.00 | 75 | 1009.0 |
| 20260504183055 | 28 | 105 | 16.1 | 19.3 | 0.03 | 0.00 | 0.00 | 75 | 1009.0 |
| 20260504181555 | 28 | 107 | 14.5 | 16.1 | 0.00 | 0.00 | 0.00 | 76 | 1009.0 |
| 20260504180059 | 28 | 107 | 14.5 | 16.1 | 0.00 | 0.00 | 0.00 | 76 | 1009.0 |
| 20260504174554 | 28 | 104 | 19.3 | 22.5 | 0.00 | 0.00 | 0.00 | 78 | 1009.0 |
| 20260504173055 | 28 | 104 | 19.3 | 22.5 | 0.03 | 0.00 | 0.00 | 78 | 1009.0 |
| 20260504171555 | 28 | 104 | 17.7 | 20.9 | 0.00 | 0.00 | 0.00 | 79 | 1010.0 |
| 20260504081511 | 28 | 109 | 22.5 | 25.7 | 0.00 | 0.00 | 0.00 | 78 | 1008.0 |
| 20260504050012 | 28 | 109 | 22.5 | 25.7 | 0.05 | 0.00 | 0.00 | 78 | 1010.0 |
| 20260504044511 | 28 | 109 | 22.5 | 25.7 | 0.00 | 0.00 | 0.00 | 78 | 1010.0 |
| 20260504043012 | 28 | 118 | 25.7 | 25.7 | 0.03 | 0.00 | 0.00 | 77 | 1010.0 |
| 20260504041511 | 28 | 118 | 25.7 | 25.7 | 0.00 | 0.00 | 0.00 | 77 | 1011.0 |
| 20260504040011 | 28 | 118 | 25.7 | 25.7 | 0.15 | 0.00 | 0.00 | 77 | 1011.0 |
| 20260504034512 | 28 | 118 | 25.7 | 25.7 | 0.00 | 0.00 | 0.00 | 77 | 1011.0 |
| 20260504033011 | 28 | 118 | 25.7 | 25.7 | 0.00 | 0.00 | 0.00 | 77 | 1011.0 |
| 20260504031511 | 28 | 118 | 25.7 | 25.7 | 0.00 | 0.00 | 0.00 | 77 | 1011.0 |
| 20260504030011 | 28 | 118 | 25.7 | 25.7 | 0.03 | 0.00 | 0.00 | 77 | 1011.0 |
| 20260504024511 | 28 | 118 | 25.7 | 25.7 | 0.00 | 0.00 | 0.00 | 77 | 1011.0 |
| 20260504023011 | 28 | 118 | 25.7 | 25.7 | 0.00 | 0.00 | 0.00 | 77 | 1011.0 |
| 20260504021511 | 28 | 118 | 25.7 | 25.7 | 0.00 | 0.00 | 0.00 | 77 | 1011.0 |
| 20260504020011 | 28 | 118 | 25.7 | 25.7 | 0.00 | 0.00 | 0.00 | 77 | 1011.0 |
| 20260504014511 | 28 | 118 | 25.7 | 25.7 | 0.00 | 0.00 | 0.00 | 77 | 1011.0 |
| 20260504013056 | 28 | 118 | 25.7 | 25.7 | 0.15 | 0.00 | 0.00 | 77 | 1011.0 |
| 20260504011557 | 28 | 115 | 27.4 | 27.4 | 0.00 | 0.00 | 0.00 | 75 | 1011.0 |
| 20260504010057 | 28 | 115 | 27.4 | 27.4 | 0.00 | 0.00 | 0.00 | 76 | 1011.0 |
| 20260504004556 | 28 | 115 | 27.4 | 27.4 | 0.00 | 0.00 | 0.00 | 75 | 1011.0 |
| 20260504003056 | 28 | 115 | 27.4 | 27.4 | 0.10 | 0.00 | 0.00 | 75 | 1011.0 |
| 20260504001556 | 29 | 113 | 27.4 | 27.4 | 0.00 | 0.00 | 0.00 | 75 | 1010.0 |
| 20260504000059 | 29 | 113 | 27.4 | 27.4 | 0.00 | 0.00 | 0.00 | 75 | 1010.0 |
| 20260503234557 | 29 | 105 | 27.4 | 27.4 | 0.00 | 0.00 | 0.00 | 75 | 1010.0 |
| 20260503233057 | 29 | 105 | 27.4 | 27.4 | 0.03 | 0.00 | 0.00 | 75 | 1010.0 |
| 20260503231556 | 28 | 110 | 25.7 | 25.7 | 0.00 | 0.00 | 0.00 | 75 | 1009.0 |
| 20260503230058 | 28 | 110 | 25.7 | 25.7 | 0.00 | 0.00 | 0.00 | 75 | 1009.0 |
| 20260503224556 | 28 | 110 | 25.7 | 25.7 | 0.00 | 0.00 | 0.00 | 75 | 1009.0 |
| 20260503223058 | 28 | 110 | 25.7 | 25.7 | 0.03 | 0.00 | 0.00 | 75 | 1009.0 |
| 20260503221556 | 28 | 106 | 22.5 | 24.1 | 0.00 | 0.00 | 0.00 | 75 | 1009.0 |
| 20260503220056 | 28 | 106 | 22.5 | 24.1 | 0.00 | 0.00 | 0.00 | 75 | 1009.0 |
| 20260503214556 | 28 | 106 | 22.5 | 24.1 | 0.00 | 0.00 | 0.00 | 75 | 1009.0 |
| 20260503213058 | 28 | 106 | 22.5 | 24.1 | 0.00 | 0.00 | 0.00 | 75 | 1009.0 |
| 20260503211556 | 28 | 104 | 22.5 | 24.1 | 0.00 | 0.00 | 0.00 | 75 | 1009.0 |
| 20260503210059 | 28 | 104 | 22.5 | 24.1 | 0.00 | 0.00 | 0.00 | 75 | 1009.0 |